{"data":{"norad_id":66447,"epoch":"2026-09-20T06:16:48.486720Z","epoch_age_seconds":113984,"freshness":"FRESH","line1":"1 66447U 25259AB  26263.26167230  .00008672  00000+0  32423-3 0  9995","line2":"2 66447  43.0005 255.9259 0001738 271.7898  88.2754 15.27584106 49139","mean_motion":15.27584106,"eccentricity":0.0001738,"inclination_deg":43.0005,"raan_deg":255.9259,"arg_perigee_deg":271.7898,"mean_anomaly_deg":88.2754,"bstar":0.00032423,"rev_number":4913,"period_min":94.266495333645,"perigee_km":481.84432921941,"apogee_km":484.22927323272,"semimajor_km":6861.1738012261,"source":"CELESTRAK","updated_at":"2026-09-21T09:00:35.911291Z"}}